#timestamp,LO_Frequency,Hit,StdDev 
1544014815.6,286046998.6,N
1544014835.5,286046998.7,N
1544014855.3,286046998.3,N
1544014875.2,286046998.9,N
1544014895.9,286046999.3,N
1544014915.7,286046998.6,N
1544014935.6,286047001.1,N
1544014955.4,286046998.6,N
1544014975.3,286046998.5,N
1544014995.1,286047001.1,N
1544014996.0,286047001.1,N
1544015015.8,286047001.1,N
1544015035.7,286046999.7,N
1544015055.5,286047000.3,N
1544015075.4,286047000.7,N
1544015095.2,286047001.1,N
1544015115.0,286047000.9,N
1544015115.9,286047000.9,N
1544015135.8,286047000.1,N
1544015155.8,286047000.0,N
1544015175.6,286047000.5,N
1544015195.5,286047000.0,N
1544015215.3,286047002.7,N
1544015235.2,286047002.6,N
1544015255.0,286047002.8,N
1544015255.9,286047002.8,N
1544015275.7,286047002.7,N
1544015295.6,286046999.8,N
1544015315.4,286047001.2,N
1544015335.3,286046998.1,N
1544015355.1,286046999.0,N
1544015356.0,286046999.0,N
1544015375.8,286046998.2,N
1544015395.7,286046998.1,N
1544015415.5,286046998.3,N
1544015435.4,286046999.3,N
1544015455.2,286046999.0,N
1544015475.0,286047001.0,N
1544015475.9,286047001.0,N
1544015495.8,286046998.2,N
1544015515.6,286046999.8,N
1544015535.4,286046999.9,N
1544015555.3,286047001.8,N
1544015575.1,286047002.0,N
1544015595.9,286047002.5,N
1544015615.7,286046999.8,N
1544015635.5,286047002.7,N
1544015655.4,286047002.0,N
1544015675.2,286047002.3,N
1544015695.0,286047002.8,N
1544015696.0,286047002.8,N
1544015715.8,286047001.8,N
1544015735.6,286047002.7,N
1544015755.5,286047001.8,N
1544015775.3,286047002.7,N
1544015795.1,286047000.8,N
1544015815.9,286047000.8,N
1544015835.7,286047001.6,N
1544015855.6,286047000.1,N
1544015875.4,286046999.9,N
1544015895.2,286046999.7,N
1544015915.1,286046998.2,N
1544015916.0,286046998.2,N
1544015935.8,286046998.1,N
1544015955.7,286046998.9,N
1544015975.5,286046998.4,N
1544015995.3,286046998.4,N
1544016015.2,286046998.7,N
1544016035.0,286047000.5,N
1544016035.9,286047000.5,N
1544016085.8,286047001.2,E
1544016095.7,286046998.5,N
1544016115.6,286046999.0,P
1544016135.4,286046999.1,P
1544016155.2,286046999.2,Y
1544016175.1,286047001.2,P
1544016176.0,286047001.2,N
1544016195.8,286046999.9,N
1544016215.6,286046999.9,N
1544016235.5,286047001.1,N
1544016255.3,286047000.7,N
1544016275.2,286047001.0,N
1544016295.9,286046999.2,N
1544016315.7,286046999.4,N
1544016335.6,286046996.9,Y
1544016355.4,286046997.0,P
1544016375.3,286046998.8,N
1544016395.1,286047000.2,N
1544016396.0,286047000.2,N
1544016415.8,286047000.4,N
1544016435.7,286046999.9,N
1544016455.5,286047000.4,N
1544016475.3,286047000.1,N
1544016495.2,286047000.3,N
1544016515.0,286047000.1,N
1544016515.9,286047000.1,N
1544016535.8,286047000.9,N
1544016555.6,286047000.7,N
1544016575.4,286047000.9,N
1544016595.3,286047000.6,N
1544016615.1,286046998.6,N
1544016635.9,286046998.5,N
1544016655.7,286047000.2,N
1544016675.5,286047000.2,N
1544016695.4,286046999.8,N
1544016715.2,286046999.7,N
1544016735.1,286047000.1,N
1544016736.0,286047000.1,N
1544016755.8,286047000.6,N
1544016775.6,286046998.3,N
1544016795.5,286046998.7,N
1544016815.3,286046999.0,N
1544016835.2,286046996.5,Y
1544016855.7,286047000.5,P
1544016875.6,286047002.0,P
1544016895.4,286046999.7,N
1544016915.2,286047000.6,N
1544016935.1,286047002.7,Y
1544016936.0,286047002.7,P
1544016955.8,286047001.1,N
1544016975.7,286046998.2,N
1544016995.5,286046998.1,N
1544017015.3,286046998.4,N
1544017035.2,286046998.1,N
1544017055.0,286046998.9,N
1544017055.9,286046998.9,N
1544017075.8,286046998.3,N
1544017095.6,286047001.2,N
1544017115.4,286046998.2,N
1544017135.3,286046998.1,N
1544017155.1,286046998.2,N
1544017175.8,286047000.8,N
1544017195.7,286047000.5,N
1544017215.5,286047000.6,N
1544017235.4,286046999.8,N
1544017255.2,286046999.9,N
1544017275.0,286046999.8,N
1544017275.9,286046999.8,N
1544017295.8,286047002.8,N
1544017315.6,286047002.8,N
1544017335.5,286047001.1,N
1544017355.3,286047000.1,N
1544017375.1,286046999.9,N
1544017395.9,286047000.6,N
1544017415.7,286047001.0,N
1544017435.6,286046999.8,N
1544017455.4,286047000.7,N
1544017475.2,286047002.7,N
1544017495.1,286047002.8,N
1544017496.0,286047002.8,N
1544017515.8,286047001.1,N
1544017535.6,286047001.0,N
1544017555.5,286046998.1,N
1544017575.3,286046998.8,N
1544017595.2,286046998.7,N
1544017615.9,286046998.4,N
1544017635.7,286046998.4,N
1544017655.6,286047001.1,N
1544017675.4,286047000.5,N
1544017695.2,286047000.7,N
1544017715.1,286046998.4,N
1544017716.0,286046998.4,N
1544017735.8,286046999.0,N
1544017755.7,286046999.0,N
1544017775.5,286046998.2,N
1544017795.3,286047001.2,N
1544017815.2,286047000.7,N
1544017835.0,286047000.1,N
1544017835.9,286047000.1,N
1544017855.8,286046999.7,N
1544017875.6,286047000.8,N
1544017895.4,286047000.6,N
1544017915.3,286046998.8,N
1544017935.1,286046998.2,N
1544017955.8,286046998.1,N
1544017975.7,286047000.9,N
1544017995.5,286047000.5,N
1544018015.4,286047000.2,N
1544018035.2,286047002.5,N
1544018055.0,286047002.4,N
1544018055.9,286047002.4,N
1544018075.8,286047000.6,N
1544018095.6,286047002.7,N
1544018115.5,286047001.8,N
1544018135.3,286047001.5,N
1544018155.1,286047002.6,N
1544018175.9,286047000.6,N
1544018195.7,286047000.0,N
1544018215.5,286046999.8,N
1544018235.4,286047001.0,N
1544018255.2,286046998.8,N
1544018275.1,286046998.8,N
1544018276.0,286046998.8,N
1544018295.8,286046998.4,N
1544018315.6,286047000.6,N
1544018335.5,286046999.7,N
1544018355.3,286047000.3,N
1544018375.1,286046998.3,N
1544018395.9,286046998.3,N
